Terminal Aerodrome Forecast
Issued by NWS

Home | Current Version | Previous Version | Text Only | Print | Product List | Glossary On
Versions: 1 2 3 4 5 6 7 8 9 10 11 12 13 14 15 16 17 18 19 20 21 22 23 24 25
681
FTUS43 KDLH 230927 AAB
TAFHYR
TAF AMD
KHYR 230927Z 2309/2406 16008KT P6SM VCSH BKN035 OVC070
      TEMPO 2309/2310 20015G23KT 1 1/2SM -SN
     FM232000 17010G18KT 5SM -RA BR SCT010 BKN025
     FM240000 16005KT 3SM -RA BR BKN008 OVC010=

USA.gov is the U.S. government's official web portal to all federal, state and local government web resources and services.